This is the latest recevied weather packets stored in our database for station/object NE8U. If no packets are shown the sender has not sent any weather packets the latest 10 day(s).
| Time | Temp. | Humidity | Pressure | Rain* | Wind** | Luminosity | Snow |
|---|---|---|---|---|---|---|---|
| 1777853827 | 31.67° C | 13% | 1011.3 hPa | 0 mm | - | 214 W/m² | - |
| 1777853523 | 31.67° C | 13% | 1011.3 hPa | 0 mm | - | 235 W/m² | - |
| 1777853220 | 31.67° C | 12% | 1011.1 hPa | 0 mm | - | 82 W/m² | - |
| 1777852917 | 31.67° C | 12% | 1011.2 hPa | 0 mm | - | 249 W/m² | - |
| 1777852615 | 31.67° C | 12% | 1011.2 hPa | 0 mm | - | 251 W/m² | - |
| 1777852311 | 32.22° C | 13% | 1011.1 hPa | 0 mm | - | 306 W/m² | - |
| 1777852010 | 32.22° C | 13% | 1011.3 hPa | 0 mm | - | 321 W/m² | - |
| 1777851708 | 32.22° C | 13% | 1011.1 hPa | 0 mm | - | 370 W/m² | - |
| 1777851404 | 31.67° C | 13% | 1011 hPa | 0 mm | - | 326 W/m² | - |
| 1777851100 | 32.22° C | 13% | 1011.1 hPa | 0 mm | - | 380 W/m² | - |
| 1777850797 | 32.22° C | 13% | 1010.8 hPa | 0 mm | - | 349 W/m² | - |
| 1777850494 | 32.22° C | 13% | 1011 hPa | 0 mm | - | 433 W/m² | - |
| 1777850192 | 32.78° C | 13% | 1011 hPa | 0 mm | - | 451 W/m² | - |
| 1777849888 | 32.22° C | 13% | 1011.1 hPa | 0 mm | - | 366 W/m² | - |
| 1777849585 | 32.78° C | 13% | 1011.1 hPa | 0 mm | - | 338 W/m² | - |
| 1777849282 | 32.22° C | 14% | 1010.9 hPa | 0 mm | - | 392 W/m² | - |
| 1777848980 | 32.78° C | 14% | 1011 hPa | 0 mm | - | 315 W/m² | - |
| 1777848679 | 33.33° C | 14% | 1011.1 hPa | 0 mm | - | 402 W/m² | - |
| 1777848377 | 33.33° C | 14% | 1011.4 hPa | 0 mm | - | 522 W/m² | - |
| 1777848075 | 33.33° C | 14% | 1011.5 hPa | 0 mm | - | 471 W/m² | - |
| 1777847773 | 33.33° C | 14% | 1011.1 hPa | 0 mm | - | 488 W/m² | - |
| 1777847468 | 33.33° C | 16% | 1011.3 hPa | 0 mm | - | 507 W/m² | - |
| 1777847166 | 33.89° C | 16% | 1011.3 hPa | 0 mm | - | 456 W/m² | - |
| 1777846864 | 33.33° C | 17% | 1011.3 hPa | 0 mm | - | 494 W/m² | - |
| 1777846562 | 32.78° C | 20% | 1011.4 hPa | 0 mm | - | 541 W/m² | - |
* Rain latest hour (hover to see other rain measurements)
** Current wind speed in m/s (hover to see current wind gust speed)